[[{"header":{"parameterUnit":"m.s-1","parameterCategory":1,"la1":30.2991,"la2":30.254,"lo1":-89.0895,"lo2":-89.0444,"dy":0.0017,"dx":0.0017,"nx":28,"ny":28,"refTime":"2025-04-13T03:00:00:Z","depth":0,"parameterNumber":2,"parameterNumberName":"U-component_of_WINDS"},"data":[0,0,0,0,0,0,0,0,0,0,0,0,0,0,0,0,0,0,0,0,0,0,0,0,0,0,0,0,0,0,0,0,0,0,0,0,0,0,0,0,0,0,0,0,0,0,0,0,0,0,0,0,0,0,0,0,0,0,1.0186,1.0186,0,1.0211,1.0211,1.0212,1.0201,1.02,1.02,1.0199,1.0229,1.023,1.0232,0,0,0,0,0,0,0,0,0,0,0,0,0,1.0134,1.0135,1.0186,1.0186,1.0186,1.0211,1.0211,1.0212,1.0201,1.02,1.02,1.0199,1.0228,1.023,1.0232,0,0,0,0,0,0,0,0,0,0,0,0,0,1.0158,1.0135,1.0186,1.0184,1.0184,1.0211,1.0211,1.0212,1.0201,1.02,1.0199,1.0199,1.0228,1.023,1.0232,1.0263,0,0,1.0238,1.0239,0,0,0,0,0,0,0,0,1.0156,1.016,1.0184,1.0184,1.0184,1.0202,1.0204,1.0229,1.0202,1.0195,1.0199,1.0198,1.0221,1.0223,1.023,1.0265,1.0266,1.0238,1.024,1.0241,1.0241,0,0,0,0,0,0,0,1.0155,1.0158,1.0196,1.0184,1.0185,1.0184,1.0186,1.0209,1.0213,1.0195,1.0195,1.0198,1.0221,1.0228,1.0231,1.0266,1.0238,1.024,1.0241,1.0242,1.0332,1.0333,0,0,0,0,0,0,1.0152,1.0157,1.0195,1.0197,1.0168,1.0185,1.0188,1.0197,1.0213,1.0214,1.0198,1.0197,1.0225,1.0229,1.0232,1.0272,1.0241,1.0242,1.0244,1.0331,1.0332,1.0333,0,0,0,0,0,0,1.0151,1.0156,1.0194,1.0177,1.0181,1.0187,1.0198,1.0198,1.0206,1.0215,1.0216,1.0205,1.0225,1.0229,1.0256,1.0273,1.0243,1.0245,1.0329,1.0331,1.0333,1.0351,0,0,0,0,0,0,1.015,1.0155,1.0166,1.0177,1.0182,1.0216,1.0199,1.0199,1.0209,1.0207,1.0221,1.0223,1.0224,1.0253,1.0258,1.0275,1.0247,1.0328,1.033,1.0332,1.0349,1.0353,1.0357,0,0,0,0,0,1.0148,1.017,1.0166,1.0171,1.0195,1.0217,1.022,1.022,1.021,1.0222,1.0228,1.0222,1.027,1.0256,1.0262,1.0279,1.0327,1.033,1.0332,1.0347,1.0352,1.0357,0,0,0,0,0,0,1.0161,1.0171,1.0167,1.0193,1.0204,1.0215,1.0229,1.0225,1.024,1.0238,1.0239,1.0243,1.0271,1.0278,1.0262,1.0313,1.0297,1.0301,1.0307,1.0312,1.0316,1.0314,1.0249,0,0,0,0,0,1.0167,1.0182,1.0191,1.0213,1.0219,1.0223,1.0232,1.0232,1.0244,1.0249,1.0257,1.027,1.0289,1.0301,1.0318,1.035,1.0355,1.0366,1.0369,1.0373,1.0376,1.0397,1.0403,1.0342,1.0342,1.0342,0,0,1.0179,1.0187,1.0196,1.0216,1.0224,1.0242,1.0227,1.0246,1.026,1.0252,1.0278,1.0285,1.03,1.0331,1.0345,1.0338,1.0394,1.0376,1.0378,1.038,1.0401,1.0406,1.0412,1.0344,1.0343,1.0343,0,0,1.0211,1.0217,1.0237,1.0247,1.0259,1.0263,1.0268,1.028,1.0284,1.031,1.0306,1.0324,1.0354,1.0366,1.0376,1.0416,1.0413,1.0422,1.0442,1.0463,1.0468,1.0472,1.0489,1.0495,1.0425,1.0425,1.0425,0,1.0225,1.025,1.0249,1.0268,1.0279,1.0272,1.0295,1.0304,1.0322,1.0331,1.0322,1.0362,1.0372,1.0407,1.0417,1.0425,1.0433,1.042,1.0467,1.0471,1.0476,1.0492,1.0498,1.0427,1.0426,1.0426,1.0426,0,1.0268,1.0285,1.03,1.0318,1.033,1.0351,1.0355,1.0368,1.0367,1.0373,1.0402,1.0413,1.0434,1.0442,1.0442,1.0479,1.0474,1.0466,1.0451,1.0483,1.0498,1.0504,1.0428,1.0428,1.0428,1.0427,0,0,1.0307,1.0325,1.0331,1.034,1.0355,1.037,1.0392,1.0412,1.0424,1.0438,1.0459,1.0486,1.048,1.0492,1.0493,1.0511,1.0546,1.0502,1.0502,1.0511,1.0591,1.0597,1.0604,1.0543,1.0544,1.0545,1.059,0,1.0341,1.0378,1.0379,1.0414,1.0432,1.0428,1.0448,1.0461,1.0468,1.0486,1.0494,1.0514,1.0503,1.051,1.0528,1.0537,1.0562,1.0534,1.0565,1.0566,1.0562,1.0612,1.0618,1.066,1.0596,1.0597,1.0598,0,1.0385,1.04,1.0437,1.0452,1.046,1.0477,1.0498,1.0514,1.053,1.0534,1.0548,1.0548,1.0574,1.0558,1.0596,1.0577,1.059,1.0597,1.0599,1.0603,1.0584,1.0619,1.0673,1.068,1.0607,1.0606,1.0605,0,1.0413,1.0443,1.0469,1.0477,1.0495,1.0508,1.0516,1.0531,1.0544,1.0562,1.0571,1.0593,1.0605,1.0623,1.063,1.0617,1.0669,1.0652,1.0675,1.0675,1.0687,1.0686,1.0745,1.0693,1.0693,1.0693,1.0692,0,1.0452,1.0475,1.0482,1.0498,1.0525,1.0528,1.0555,1.0563,1.0577,1.0598,1.0596,1.0615,1.0622,1.0644,1.065,1.0682,1.0687,1.0693,1.0695,1.0694,1.0694,1.0703,1.0701,1.0694,1.0694,1.0694,1.0693,0,1.0487,1.0492,1.0521,1.0536,1.0541,1.056,1.0574,1.0592,1.0599,1.0625,1.0631,1.0642,1.0668,1.0677,1.0708,1.0712,1.0751,1.0749,1.0745,1.0745,1.0769,1.0767,1.0837,1.0848,1.0787,1.0787,1.0788,0,1.0511,1.0529,1.0547,1.0559,1.0568,1.0588,1.0602,1.0606,1.0621,1.0643,1.0658,1.0684,1.0704,1.0746,1.0759,1.0784,1.0784,1.0807,1.0788,1.0788,1.0787,1.0787,1.079,1.0811,1.0811,1.0812,1.0812,0,1.0556,1.0558,1.0576,1.0597,1.0612,1.0629,1.0645,1.0656,1.0664,1.0681,1.0706,1.0722,1.0755,1.0782,1.0808,1.0819,1.0819,1.0818,1.0826,1.0826,1.0823,1.0827,1.0756,1.0817,1.0816,1.0816,1.0816,1.0816,1.0588,1.0604,1.062,1.0641,1.0654,1.067,1.0688,1.0697,1.0718,1.0744,1.0746,1.0775,1.0795,1.083,1.0843,1.0868,1.0862,1.0871,1.0874,1.0877,1.088,1.0819,1.0873,1.0873,1.0872,1.0872,1.0872,0,1.0634,1.0644,1.0663,1.0686,1.0704,1.07,1.0719,1.0735,1.0759,1.0777,1.0798,1.083,1.0856,1.0872,1.0899,1.0917,1.0917,1.0924,1.0923,1.0927,1.0882,1.0874,1.0923,1.0923,1.0923,1.0923,1.0923,1.0923,1.066,1.0688,1.0693,1.073,1.0741,1.0767,1.0779,1.0795,1.0809,1.0844,1.0866,1.0876,1.0894,1.0923,1.0949,1.0953,1.0965,1.0972,1.0977,1.0935,1.093,1.0925,1.0917,1.0974,1.0974,1.102,1.102,1.102]},{"header":{"parameterUnit":"m.s-1","parameterCategory":1,"la1":30.2991,"la2":30.254,"lo1":-89.0895,"lo2":-89.0444,"dy":0.0017,"dx":0.0017,"nx":28,"ny":28,"refTime":"2025-04-13T03:00:00:Z","depth":0,"parameterNumber":3,"parameterNumberName":"V-component_of_WINDS"},"data":[0,0,0,0,0,0,0,0,0,0,0,0,0,0,0,0,0,0,0,0,0,0,0,0,0,0,0,0,0,0,0,0,0,0,0,0,0,0,0,0,0,0,0,0,0,0,0,0,0,0,0,0,0,0,0,0,0,0,-1.7978,-1.7977,0,-1.7873,-1.7872,-1.7871,-1.7863,-1.7864,-1.7865,-1.7867,-1.7749,-1.7745,-1.7741,0,0,0,0,0,0,0,0,0,0,0,0,0,-1.816,-1.8157,-1.7979,-1.7977,-1.7976,-1.7874,-1.7872,-1.7871,-1.7863,-1.7864,-1.7866,-1.7867,-1.7751,-1.7746,-1.7741,0,0,0,0,0,0,0,0,0,0,0,0,0,-1.8071,-1.8156,-1.7979,-1.796,-1.7957,-1.7874,-1.7872,-1.787,-1.7863,-1.7864,-1.7866,-1.7868,-1.7752,-1.7746,-1.774,-1.7665,0,0,-1.7721,-1.7718,0,0,0,0,0,0,0,0,-1.8076,-1.8064,-1.7964,-1.7961,-1.7958,-1.7883,-1.7893,-1.7801,-1.7862,-1.7898,-1.7867,-1.7869,-1.7792,-1.7782,-1.7758,-1.766,-1.7655,-1.772,-1.7716,-1.7713,-1.7712,0,0,0,0,0,0,0,-1.8082,-1.8068,-1.7937,-1.7963,-1.7959,-1.7953,-1.7942,-1.7876,-1.7836,-1.7895,-1.7894,-1.7883,-1.779,-1.7765,-1.7756,-1.7653,-1.772,-1.7714,-1.7711,-1.7708,-1.7481,-1.7479,0,0,0,0,0,0,-1.8093,-1.8074,-1.794,-1.7934,-1.8023,-1.7948,-1.7936,-1.7905,-1.7837,-1.7828,-1.7881,-1.7883,-1.7775,-1.7763,-1.7751,-1.7655,-1.7713,-1.7707,-1.7704,-1.7483,-1.748,-1.7478,0,0,0,0,0,0,-1.8097,-1.8082,-1.7944,-1.8003,-1.7986,-1.7943,-1.7909,-1.7902,-1.7877,-1.7826,-1.7818,-1.7863,-1.7775,-1.776,-1.7686,-1.7651,-1.7705,-1.7699,-1.7486,-1.7482,-1.7479,-1.7465,0,0,0,0,0,0,-1.8103,-1.8083,-1.8058,-1.8003,-1.7983,-1.7884,-1.7907,-1.7899,-1.7867,-1.7868,-1.7807,-1.7798,-1.7776,-1.7695,-1.768,-1.7643,-1.7694,-1.7488,-1.7484,-1.748,-1.7468,-1.7461,-1.7455,0,0,0,0,0,-1.8109,-1.8057,-1.8056,-1.804,-1.795,-1.7883,-1.787,-1.7848,-1.7864,-1.7836,-1.7802,-1.78,-1.7658,-1.7688,-1.767,-1.7631,-1.749,-1.7485,-1.748,-1.7471,-1.7463,-1.7456,0,0,0,0,0,0,-1.8106,-1.805,-1.8048,-1.7978,-1.7935,-1.7882,-1.7845,-1.7841,-1.7791,-1.7793,-1.7764,-1.775,-1.7676,-1.7646,-1.7681,-1.7552,-1.7575,-1.7566,-1.7574,-1.7566,-1.756,-1.7567,-1.7689,0,0,0,0,0,-1.8098,-1.8052,-1.8003,-1.7945,-1.7924,-1.7888,-1.7858,-1.7844,-1.7798,-1.7779,-1.7741,-1.7692,-1.7636,-1.76,-1.7546,-1.7464,-1.7447,-1.7428,-1.7422,-1.7417,-1.7408,-1.7357,-1.7346,-1.7461,-1.7461,-1.7461,0,0,-1.8079,-1.8042,-1.8015,-1.7943,-1.7909,-1.7857,-1.7873,-1.7819,-1.7778,-1.777,-1.7697,-1.7666,-1.761,-1.7531,-1.7494,-1.7504,-1.7373,-1.741,-1.7407,-1.7401,-1.7351,-1.734,-1.733,-1.7458,-1.7458,-1.7459,0,0,-1.8018,-1.7988,-1.7934,-1.7899,-1.7847,-1.7823,-1.781,-1.7756,-1.7736,-1.7663,-1.7654,-1.7603,-1.7509,-1.7467,-1.7434,-1.7353,-1.7346,-1.7336,-1.7301,-1.7252,-1.7242,-1.7234,-1.72,-1.7189,-1.7328,-1.7328,-1.7328,0,-1.8,-1.7926,-1.7906,-1.7851,-1.7817,-1.7809,-1.7751,-1.7717,-1.7648,-1.7623,-1.7637,-1.7514,-1.7476,-1.7384,-1.7364,-1.7339,-1.7318,-1.7341,-1.7246,-1.7238,-1.7229,-1.7196,-1.7184,-1.7327,-1.7327,-1.7327,-1.7327,0,-1.7904,-1.7851,-1.7813,-1.7749,-1.7711,-1.7655,-1.7622,-1.7586,-1.7574,-1.7547,-1.7469,-1.7423,-1.7357,-1.7334,-1.7323,-1.7238,-1.7245,-1.7253,-1.7275,-1.7217,-1.7185,-1.7173,-1.7325,-1.7325,-1.7326,-1.7326,0,0,-1.7839,-1.7763,-1.7749,-1.7717,-1.7658,-1.7614,-1.7555,-1.7493,-1.7459,-1.7411,-1.7357,-1.7275,-1.728,-1.7242,-1.7225,-1.7182,-1.7113,-1.7193,-1.7191,-1.7176,-1.701,-1.7003,-1.6989,-1.711,-1.7107,-1.7105,-1.7013,0,-1.7768,-1.7666,-1.7644,-1.7554,-1.7501,-1.7491,-1.7438,-1.7393,-1.7365,-1.7313,-1.728,-1.7221,-1.7235,-1.7211,-1.7168,-1.7131,-1.7078,-1.7137,-1.7053,-1.705,-1.7064,-1.6973,-1.6966,-1.6882,-1.7001,-1.6999,-1.6998,0,-1.7672,-1.7623,-1.7528,-1.747,-1.7447,-1.7401,-1.7339,-1.7292,-1.7237,-1.7219,-1.7175,-1.7162,-1.7093,-1.7121,-1.7023,-1.7063,-1.7027,-1.7003,-1.6999,-1.6987,-1.7018,-1.6955,-1.6855,-1.684,-1.6979,-1.698,-1.6982,0,-1.7629,-1.7538,-1.7468,-1.7442,-1.7375,-1.7341,-1.7311,-1.7259,-1.7221,-1.7166,-1.714,-1.7077,-1.7041,-1.699,-1.6957,-1.6981,-1.6859,-1.6885,-1.6837,-1.6838,-1.681,-1.6812,-1.6699,-1.6794,-1.6794,-1.6794,-1.6794,0,-1.755,-1.7491,-1.7447,-1.7404,-1.7335,-1.7309,-1.724,-1.7209,-1.7162,-1.7108,-1.7095,-1.7044,-1.7006,-1.6948,-1.6921,-1.6841,-1.6826,-1.6805,-1.6798,-1.6804,-1.6806,-1.6778,-1.6781,-1.6791,-1.6791,-1.6792,-1.6793,0,-1.7489,-1.7459,-1.7381,-1.7323,-1.7307,-1.7258,-1.7206,-1.716,-1.7131,-1.7063,-1.7045,-1.6998,-1.6928,-1.6891,-1.6804,-1.6786,-1.6694,-1.6692,-1.6713,-1.6709,-1.6662,-1.6665,-1.6523,-1.6501,-1.6615,-1.6614,-1.6613,0,-1.744,-1.7394,-1.7331,-1.7295,-1.7264,-1.7207,-1.7168,-1.7139,-1.7098,-1.703,-1.6991,-1.6922,-1.6864,-1.6752,-1.6707,-1.6638,-1.6632,-1.6587,-1.6621,-1.6627,-1.6625,-1.6627,-1.6619,-1.658,-1.6579,-1.6578,-1.6577,0,-1.7353,-1.7339,-1.7286,-1.7225,-1.7179,-1.713,-1.708,-1.705,-1.7012,-1.6965,-1.6895,-1.6851,-1.6761,-1.6689,-1.6616,-1.6579,-1.6569,-1.6567,-1.6551,-1.6556,-1.6567,-1.6555,-1.6692,-1.657,-1.6571,-1.6571,-1.6572,-1.6572,-1.7294,-1.725,-1.7198,-1.7137,-1.7096,-1.7049,-1.7002,-1.6967,-1.6909,-1.6835,-1.682,-1.6744,-1.6685,-1.6586,-1.6547,-1.6484,-1.6492,-1.6471,-1.6464,-1.6459,-1.6454,-1.6581,-1.6471,-1.6471,-1.6471,-1.6471,-1.6471,0,-1.7203,-1.7168,-1.7112,-1.7043,-1.6993,-1.6992,-1.6935,-1.6892,-1.6826,-1.6774,-1.6717,-1.6633,-1.6562,-1.6511,-1.6437,-1.6395,-1.6388,-1.6376,-1.6377,-1.6367,-1.6453,-1.6472,-1.6383,-1.6383,-1.6383,-1.6383,-1.6383,-1.6383,-1.7149,-1.7074,-1.7053,-1.6956,-1.692,-1.6848,-1.6815,-1.6768,-1.6726,-1.6633,-1.6575,-1.6543,-1.6488,-1.641,-1.6343,-1.6329,-1.63,-1.6288,-1.6273,-1.6353,-1.6362,-1.6371,-1.6388,-1.6283,-1.6283,-1.6191,-1.6191,-1.619]}]]